SCP
0 0 0 0 0 0 0 1 2 3 5 6 7 7 7 6 6 6 6 5 5 5 5 4 4 5 5 7 9 10 10 8 7 7 7 7 6 5 5 5 4 3 3 3
0 0 0 0 0 1 1 2 3 4 6 8 9 10 9 8 8 7 6 6 6 6 6 6 6 6 6 8 11 12 11 9 7 7 7 7 6 5 5 5 4 4 3 3
0 0 0 1 1 1 2 3 4 5 7 9 12 14 13 11 9 8 7 7 7 7 7 7 7 8 8 10 13 13 11 9 7 7 7 7 6 6 5 5 5 4 4 4
0 0 0 1 1 1 2 3 4 6 8 11 15 19 18 15 11 8 8 8 8 7 8 9 10 10 10 11 14 15 13 9 7 7 7 7 6 6 5 5 5 4 4 4
0 0 0 1 1 2 2 3 4 7 9 12 18 22 23 19 14 11 10 10 10 11 13 14 13 12 10 9 13 16 13 9 8 8 8 7 7 6 5 5 4 4 4 4
0 0 0 1 2 2 3 4 5 8 11 14 18 21 22 19 15 13 12 13 13 14 16 17 14 12 11 10 11 13 13 12 11 10 9 8 8 7 6 5 4 4 4 4
0 0 1 2 3 3 3 4 7 9 12 15 17 18 17 15 12 12 13 13 13 13 15 15 15 15 15 14 13 14 15 16 14 12 10 9 9 9 8 6 5 5 4 4
0 1 3 5 5 4 4 6 9 12 14 15 15 15 14 12 11 12 12 12 12 13 15 17 21 24 24 22 19 18 18 16 13 11 10 9 9 9 9 8 6 5 4 4
5 6 8 10 8 6 5 8 11 13 13 13 13 12 12 12 12 13 14 14 14 14 15 18 24 30 31 27 22 19 16 13 11 11 11 11 10 9 10 9 7 5 5 5
12 12 13 14 12 8 7 9 12 12 12 11 11 10 10 11 12 13 14 14 14 13 12 14 18 23 25 23 20 17 14 12 11 12 12 12 10 10 10 10 9 7 6 6
12 12 12 12 12 10 9 10 11 11 11 10 10 9 8 8 9 11 12 13 12 10 9 8 9 11 13 14 14 14 12 12 12 12 12 11 9 8 9 10 10 8 7 7
7 8 8 8 8 9 8 9 10 10 10 10 9 9 8 7 7 9 11 11 10 8 7 7 6 5 6 7 9 9 9 10 11 12 11 9 7 6 7 8 8 6 6 6
4 5 5 5 5 6 6 7 8 9 9 9 9 9 9 8 7 7 9 9 8 7 7 7 6 5 4 4 4 5 6 7 9 10 11 8 5 4 5 6 5 4 3 3
3 4 4 4 4 5 6 6 8 9 9 9 8 8 8 8 7 7 8 8 8 8 8 7 6 5 4 3 2 3 4 5 6 7 8 7 5 4 4 5 6 5 3 1
3 3 3 3 4 5 7 8 9 9 9 9 8 7 7 7 7 7 7 8 9 9 9 8 7 5 4 3 2 2 2 2 3 3 4 6 6 4 3 5 7 7 6 3
3 4 4 5 5 7 8 9 10 10 9 9 8 8 7 6 6 7 7 8 9 9 9 8 7 5 3 3 2 2 1 2 2 2 3 4 5 5 3 4 5 7 7 6
3 4 6 7 8 8 9 10 10 9 8 7 7 8 8 6 5 6 6 7 7 7 7 8 7 5 4 3 3 3 3 3 3 2 3 4 5 5 3 3 4 6 7 7
2 3 5 7 9 9 9 9 9 9 8 7 7 8 7 6 5 5 6 6 6 6 7 7 7 5 3 3 3 3 3 3 3 3 3 3 3 3 3 2 3 5 6 6
3 3 3 5 7 8 8 7 7 7 7 6 7 7 6 5 5 6 8 8 6 5 5 5 4 3 3 2 2 2 2 2 2 2 2 2 2 2 2 2 3 4 6 6
3 3 4 4 4 4 4 5 5 6 6 6 6 6 5 5 4 5 6 7 5 4 3 3 2 1 2 2 2 1 1 1 1 1 1 1 1 1 1 1 3 4 5 6
4 4 4 4 3 3 3 3 4 5 5 5 4 4 4 4 3 3 3 3 3 2 1 1 1 1 1 1 1 1 1 1 0 0 0 0 0 0 0 1 3 4 5 5
4 4 4 3 3 4 4 3 4 4 4 4 4 4 3 3 2 2 2 2 1 1 1 1 1 1 1 1 1 1 1 0 0 0 0 0 0 0 0 1 2 4 5 4
5 4 4 3 4 4 4 3 4 4 4 3 3 3 3 2 2 2 2 2 2 1 1 1 1 1 1 1 2 1 1 0 0 0 0 0 0 0 0 1 2 3 3 3
5 5 4 4 4 4 4 4 4 4 3 3 3 3 3 2 2 1 2 2 1 1 1 1 0 0 0 1 2 2 1 1 0 0 0 0 0 0 0 1 2 2 1 1
5 5 4 3 4 4 4 4 4 3 3 3 3 3 2 2 1 1 1 1 1 0 0 0 0 0 0 1 2 2 1 1 1 0 0 0 0 0 0 0 1 1 0 0
5 4 3 3 3 4 4 4 3 3 3 3 3 2 2 1 1 0 0 0 0 0 0 0 0 0 0 1 2 2 2 2 1 1 1 0 0 0 0 0 0 0 0 0
4 4 3 2 3 3 4 3 3 3 3 3 3 2 2 1 0 0 0 0 0 0 0 0 0 0 0 1 2 2 2 2 2 1 1 1 1 0 0 0 0 0 0 0
Wind_Speed
5 4 2 2 3 2 4 8 8 8 8 8 7 8 9 9 8 9 9 10 10 9 7 7 8 8 8 8 8 8 8 7 6 5 5 4 4 3 3 3 3 2 2 2
2 1 1 1 3 2 2 4 6 6 4 4 3 5 6 8 10 10 9 10 10 9 8 8 8 8 9 8 8 8 8 6 5 6 5 5 4 4 3 3 2 3 3 3
2 2 2 3 4 2 2 2 6 7 7 5 6 7 8 8 9 10 10 9 9 9 9 8 8 9 9 8 8 8 7 6 6 6 6 5 5 4 4 3 3 3 3 3
1 2 4 8 4 2 3 2 3 5 6 9 9 7 5 6 9 8 9 9 7 7 7 6 6 7 8 8 8 8 7 6 6 6 6 5 5 5 4 3 3 3 2 3
3 2 4 6 3 0 3 1 2 6 7 7 8 9 5 2 6 7 8 8 7 7 7 7 8 8 9 8 7 7 6 6 6 6 6 6 5 5 4 4 3 3 2 2
3 3 5 7 4 1 5 1 2 6 8 8 8 6 3 2 5 6 7 6 6 7 7 8 7 9 9 8 7 7 6 5 5 5 6 6 5 4 3 4 4 3 3 2
3 3 5 6 4 2 4 6 3 5 7 7 5 6 7 6 6 7 7 7 7 8 8 7 8 9 9 7 7 6 6 6 5 5 5 5 4 4 4 4 4 3 3 2
4 3 6 5 2 3 5 3 4 5 5 6 5 7 8 8 7 8 7 7 8 9 7 6 8 9 9 6 5 6 6 6 5 4 4 4 5 4 4 4 4 3 2 2
6 6 5 2 1 2 2 3 3 4 4 8 8 8 8 8 8 7 7 6 6 8 8 6 7 8 9 6 6 7 7 6 4 4 4 4 4 4 4 4 3 3 2 2
0 2 2 2 3 3 3 4 3 4 6 7 8 9 8 7 7 7 6 6 6 7 7 6 6 7 7 7 7 7 7 6 4 4 4 3 3 3 3 3 3 3 3 2
1 2 3 4 3 3 4 6 6 4 5 6 9 8 8 7 6 6 5 5 5 6 6 6 6 6 6 6 8 8 6 5 5 4 4 3 3 2 2 2 4 4 4 3
4 4 2 3 2 2 4 4 5 4 4 5 7 8 7 7 6 6 6 5 5 5 5 5 6 6 6 6 7 8 6 5 4 3 3 3 4 3 6 3 3 4 4 5
5 4 3 2 1 2 3 2 3 4 5 6 5 6 7 6 6 6 6 6 7 7 6 6 6 6 6 6 7 7 6 6 4 4 4 3 3 4 3 3 5 4 3 4
1 1 0 1 1 1 2 2 3 4 5 6 5 6 6 5 5 6 6 6 6 6 6 5 6 5 5 6 7 6 6 6 5 4 4 4 3 3 3 4 2 1 2 1
3 3 3 1 0 1 2 3 4 3 5 4 5 5 6 6 5 5 5 5 6 6 6 6 5 5 5 6 7 6 5 4 4 4 4 4 4 3 3 3 3 2 1 1
2 2 3 2 1 2 2 3 4 4 4 4 4 4 4 5 5 4 4 5 6 6 6 6 5 5 5 6 6 5 4 6 5 4 4 4 4 4 4 3 3 3 2 2
4 3 3 2 1 1 2 3 4 4 4 5 5 5 5 5 4 4 3 3 4 5 5 6 6 5 6 6 6 4 4 5 6 4 4 4 4 4 4 4 4 3 2 3
6 5 5 5 4 3 2 2 4 4 4 5 6 5 5 5 5 4 4 3 3 3 3 4 5 5 5 5 5 4 4 4 4 4 4 4 4 4 4 4 4 4 2 3
3 4 4 3 3 4 3 3 3 4 4 5 5 5 5 4 4 5 4 4 4 3 3 4 7 6 5 5 5 4 4 4 3 3 3 5 4 4 4 4 4 4 3 3
2 2 2 2 3 4 4 3 3 3 3 4 5 5 4 4 4 4 4 3 3 4 4 5 6 5 5 5 5 3 4 4 4 4 3 4 4 4 4 4 4 4 4 4
1 2 3 3 3 3 4 4 4 3 3 4 5 5 4 4 4 4 4 2 2 3 4 5 4 4 4 4 5 4 4 4 4 4 4 4 4 4 4 4 4 4 4 4
1 2 3 3 3 2 3 3 3 4 3 3 4 5 5 4 4 3 2 3 3 5 4 3 3 4 5 6 4 4 4 4 4 3 3 4 4 4 4 4 4 4 4 4
0 1 2 3 4 3 2 2 3 4 4 4 4 5 4 4 4 4 2 2 3 6 4 4 5 7 8 5 4 4 5 5 4 4 4 4 4 4 4 4 4 4 4 4
0 0 0 1 2 3 2 2 2 3 3 3 4 4 4 3 2 1 2 4 5 6 4 5 8 9 8 4 4 4 4 4 4 4 4 4 4 4 4 4 4 4 4 5
0 1 1 2 2 2 2 2 3 3 3 3 3 3 3 3 3 2 3 4 6 6 4 6 8 8 5 4 4 4 4 4 4 4 3 4 4 4 4 4 5 5 4 4
1 1 1 2 2 2 2 2 2 2 2 2 2 2 2 2 3 3 3 3 5 6 5 4 5 6 4 4 4 4 4 4 4 4 4 4 4 5 4 4 5 4 4 4
1 1 0 0 0 1 2 2 3 2 2 3 2 2 2 2 3 3 4 3 3 3 3 4 4 4 4 4 4 3 3 3 4 4 4 4 4 4 5 5 4 4 4 4
Wind_Direction
207 210 183 237 252 212 165 170 171 202 196 212 195 174 164 152 145 143 149 152 156 156 157 159 162 163 165 166 164 160 157 160 168 164 153 147 144 149 145 133 135 131 114 103
291 294 66 320 293 243 199 172 169 164 215 226 151 129 136 147 148 149 152 155 154 153 156 159 162 163 161 161 162 156 155 161 158 148 144 146 146 141 135 135 133 115 110 109
267 310 48 284 250 211 211 182 160 175 208 163 131 137 154 157 151 149 150 151 151 157 163 165 164 159 159 159 153 149 152 155 154 150 148 152 149 136 136 137 120 107 104 105
157 72 211 241 249 196 172 207 161 168 173 161 160 152 148 148 143 143 145 145 152 158 154 152 151 146 146 142 143 145 148 150 150 147 146 145 139 137 135 126 121 119 112 114
121 155 263 290 300 148 144 292 162 149 144 135 122 85 55 90 138 145 148 145 147 150 142 138 140 140 132 131 136 138 142 146 148 146 145 142 143 146 144 133 129 125 113 119
126 152 215 246 274 272 99 327 289 135 141 137 117 118 199 174 124 122 124 128 126 123 123 129 137 135 129 131 131 136 139 137 137 136 140 144 148 144 134 136 135 125 110 112
153 196 250 255 279 61 140 217 222 148 140 139 146 170 168 145 127 125 121 117 112 113 120 132 133 126 125 128 136 136 123 114 115 122 131 136 132 125 124 129 124 125 115 99
152 179 250 289 31 144 208 207 159 138 139 128 126 122 126 126 121 115 114 115 115 114 116 121 126 126 127 132 130 121 117 114 110 112 125 124 125 127 128 131 130 131 120 106
183 206 238 279 177 210 158 137 131 123 125 131 126 124 125 122 121 119 119 118 115 114 115 115 122 128 130 133 128 122 114 114 111 103 99 115 126 133 131 134 140 144 142 138
76 272 309 354 15 27 63 92 95 111 114 114 124 128 124 123 123 121 120 123 120 120 122 125 123 124 133 138 132 125 123 123 120 111 97 90 103 126 137 146 151 152 154 160
270 297 12 6 5 40 58 75 79 77 94 117 127 129 128 129 128 128 126 130 131 135 137 138 132 129 135 139 135 132 131 128 124 120 118 103 90 88 138 170 182 170 175 171
220 235 194 255 295 45 73 76 86 84 84 110 132 135 128 131 134 134 136 136 133 136 140 143 137 137 145 146 142 140 140 140 136 131 125 122 116 77 44 65 107 137 154 158
207 223 207 238 288 80 105 109 93 105 129 129 126 128 129 134 140 143 141 141 145 149 149 148 143 145 154 152 147 146 150 152 147 144 145 144 143 139 119 45 51 73 120 153
223 114 349 288 256 73 85 104 96 107 116 123 125 123 124 124 131 136 147 153 148 147 147 151 151 156 161 153 145 144 148 152 151 157 160 160 160 159 155 152 143 33 14 128
267 188 190 196 102 86 112 115 103 107 110 114 123 127 131 132 141 151 155 146 140 146 153 155 158 167 164 152 147 150 152 155 155 158 159 159 160 157 153 152 152 151 102 45
198 129 127 137 166 154 137 129 135 144 133 127 126 130 138 138 137 137 141 144 150 164 169 165 171 175 162 153 150 154 159 165 161 158 158 156 157 158 157 155 155 158 167 167
164 181 167 168 183 157 153 160 163 159 147 140 142 133 132 131 127 130 142 157 162 170 169 168 174 169 158 157 159 162 162 167 162 158 165 166 165 166 164 162 164 170 186 185
198 199 189 178 175 172 195 177 156 150 155 155 145 136 140 150 159 165 169 152 134 137 163 169 163 154 153 159 163 161 161 167 166 166 168 166 168 167 165 166 168 169 168 160
195 193 194 189 180 171 180 186 175 160 155 149 145 150 155 157 161 161 153 147 155 172 203 180 156 150 151 160 159 159 161 164 164 166 166 163 166 167 167 170 173 172 169 161
166 179 171 155 144 144 149 166 169 154 154 151 147 143 141 148 150 149 151 161 189 198 188 168 159 157 158 165 158 162 167 168 167 165 163 165 169 171 170 172 172 169 164 162
193 177 158 145 148 154 162 167 161 162 163 155 154 159 161 159 151 148 148 169 220 176 157 156 159 163 164 165 158 159 164 163 163 164 167 165 162 164 166 165 164 164 161 156
187 165 153 146 140 162 182 175 161 159 156 149 149 150 147 152 154 147 168 187 185 163 157 163 163 163 162 158 155 155 158 158 156 156 162 165 160 161 165 164 163 162 159 156
221 160 149 144 144 155 154 153 157 157 157 154 153 154 159 168 167 160 190 211 170 164 162 172 170 162 157 152 152 156 158 158 160 162 164 162 157 155 162 165 163 160 160 160
43 67 115 150 132 127 138 167 157 153 153 152 157 161 156 154 166 185 175 171 172 168 166 169 168 163 154 151 149 153 157 158 157 159 162 158 156 156 157 161 159 160 161 160
168 136 118 120 128 150 165 160 136 135 139 139 141 149 154 158 164 176 167 170 171 164 161 168 167 161 156 152 154 157 162 165 162 162 162 159 158 156 159 159 160 161 161 162
197 184 201 187 171 169 166 151 148 155 148 145 150 153 150 146 146 145 150 162 165 161 159 163 164 160 159 158 159 161 162 163 163 166 168 164 162 160 159 161 159 162 162 162
235 216 171 125 171 164 154 149 152 166 170 164 161 173 169 164 158 154 152 157 162 159 155 158 158 158 156 154 157 161 162 160 160 162 164 163 162 162 162 160 161 162 158 160